| time (UTC) | temp F | wind direction | speed MPH | gust MPH | rain 1hr in | rain 24hr in | rain mn in | humidity % | barometer mb |
| 20260505102123 | 50 | 225 | 0.0 | 2.0 | 0.00 | 0.00 | 0.00 | 99 | 1009.1 |
| 20260505101122 | 50 | 166 | 0.0 | 2.0 | 0.00 | 0.00 | 0.00 | 99 | 1009.0 |
| 20260505100122 | 50 | 224 | 0.0 | 2.0 | 0.00 | 0.00 | 0.00 | 99 | 1009.0 |
| 20260505095122 | 50 | 108 | 0.0 | 2.0 | 0.00 | 0.00 | 0.00 | 99 | 1008.6 |
| 20260505094124 | 50 | 113 | 0.0 | 0.0 | 0.00 | 0.00 | 0.00 | 99 | 1008.7 |
| 20260505093123 | 50 | 158 | 0.0 | 0.0 | 0.00 | 0.00 | 0.00 | 99 | 1008.8 |
| 20260505092121 | 50 | 161 | 0.0 | 2.0 | 0.00 | 0.00 | 0.00 | 99 | 1008.7 |
| 20260505091142 | 51 | 113 | 0.0 | 0.0 | 0.00 | 0.00 | 0.00 | 99 | 1008.8 |
| 20260505090121 | 51 | 180 | 0.0 | 0.0 | 0.00 | 0.00 | 0.00 | 99 | 1008.8 |
| 20260505085121 | 51 | 243 | 1.0 | 2.0 | 0.00 | 0.00 | 0.00 | 99 | 1008.7 |
| 20260505084121 | 51 | 153 | 1.0 | 2.0 | 0.00 | 0.00 | 0.00 | 99 | 1008.6 |
| 20260505083121 | 52 | 176 | 0.0 | 3.0 | 0.00 | 0.00 | 0.00 | 99 | 1008.7 |
| 20260505082121 | 52 | 209 | 0.0 | 2.0 | 0.00 | 0.00 | 0.00 | 99 | 1008.7 |
| 20260505081121 | 52 | 223 | 1.0 | 3.0 | 0.00 | 0.00 | 0.00 | 99 | 1008.7 |
| 20260505080142 | 52 | 247 | 0.0 | 2.0 | 0.00 | 0.00 | 0.00 | 99 | 1008.7 |
| 20260505075121 | 52 | 242 | 1.0 | 2.0 | 0.00 | 0.00 | 0.00 | 99 | 1008.6 |
| 20260505074121 | 53 | 214 | 1.0 | 3.0 | 0.00 | 0.00 | 0.00 | 99 | 1008.6 |
| 20260505073121 | 53 | 227 | 2.0 | 3.0 | 0.00 | 0.00 | 0.00 | 99 | 1008.6 |
| 20260505072122 | 53 | 209 | 2.0 | 3.0 | 0.00 | 0.00 | 0.00 | 99 | 1008.6 |
| 20260505071123 | 53 | 172 | 2.0 | 4.0 | 0.00 | 0.00 | 0.00 | 99 | 1008.6 |
| 20260505070122 | 53 | 182 | 2.0 | 6.0 | 0.00 | 0.00 | 0.00 | 99 | 1008.6 |
| 20260505065122 | 53 | 253 | 2.0 | 5.0 | 0.00 | 0.00 | 0.00 | 99 | 1008.6 |
| 20260505064122 | 53 | 202 | 2.0 | 4.0 | 0.00 | 0.00 | 0.00 | 99 | 1008.6 |
| 20260505063123 | 53 | 202 | 1.0 | 3.0 | 0.00 | 0.00 | 0.00 | 99 | 1008.8 |
| 20260505062122 | 53 | 215 | 2.0 | 3.0 | 0.00 | 0.00 | 0.00 | 99 | 1008.8 |
| 20260505061122 | 53 | 202 | 2.0 | 4.0 | 0.00 | 0.00 | 0.00 | 99 | 1008.9 |
| 20260505060123 | 53 | 149 | 1.0 | 3.0 | 0.00 | 0.00 | 0.00 | 99 | 1008.9 |
| 20260505055143 | 53 | 178 | 1.0 | 4.0 | 0.00 | 0.00 | 0.00 | 99 | 1008.9 |
| 20260505054122 | 54 | 198 | 2.0 | 4.0 | 0.00 | 0.00 | 0.00 | 99 | 1009.0 |
| 20260505053122 | 54 | 225 | 2.0 | 3.0 | 0.00 | 0.00 | 0.00 | 99 | 1009.1 |
| 20260505052122 | 54 | 215 | 1.0 | 3.0 | 0.00 | 0.00 | 0.00 | 99 | 1009.1 |
| 20260505051121 | 54 | 190 | 1.0 | 3.0 | 0.00 | 0.00 | 0.00 | 98 | 1009.2 |
| 20260505050123 | 54 | 215 | 1.0 | 3.0 | 0.00 | 0.00 | 0.00 | 97 | 1009.2 |
| 20260505041121 | 57 | 237 | 1.0 | 3.0 | 0.00 | 0.00 | 0.00 | 87 | 1009.4 |
| 20260505040121 | 57 | 244 | 2.0 | 3.0 | 0.00 | 0.00 | 0.00 | 86 | 1009.4 |
| 20260505035142 | 57 | 244 | 2.0 | 6.0 | 0.00 | 0.00 | 0.00 | 85 | 1009.4 |
| 20260505034125 | 57 | 236 | 3.0 | 6.0 | 0.00 | 0.00 | 0.00 | 85 | 1009.2 |
| 20260505033123 | 58 | 245 | 3.0 | 5.0 | 0.00 | 0.00 | 0.00 | 85 | 1009.2 |
| 20260505032143 | 57 | 232 | 3.0 | 5.0 | 0.00 | 0.00 | 0.00 | 85 | 1009.5 |
| 20260505031123 | 58 | 197 | 3.0 | 6.0 | 0.00 | 0.00 | 0.00 | 85 | 1009.5 |
| 20260505030121 | 57 | 230 | 3.0 | 5.0 | 0.00 | 0.00 | 0.00 | 86 | 1009.5 |
| 20260505025121 | 57 | 230 | 2.0 | 5.0 | 0.00 | 0.00 | 0.00 | 87 | 1009.6 |
| 20260505024122 | 57 | 220 | 2.0 | 5.0 | 0.00 | 0.00 | 0.00 | 87 | 1009.7 |
| 20260505023143 | 57 | 257 | 3.0 | 6.0 | 0.00 | 0.00 | 0.00 | 87 | 1009.6 |
| 20260505022124 | 57 | 157 | 1.0 | 4.0 | 0.00 | 0.00 | 0.00 | 87 | 1009.7 |
| 20260505021124 | 57 | 230 | 2.0 | 4.0 | 0.00 | 0.00 | 0.00 | 87 | 1009.6 |
| 20260505020122 | 57 | 192 | 1.0 | 4.0 | 0.00 | 0.00 | 0.00 | 86 | 1009.6 |
| 20260505015143 | 57 | 262 | 2.0 | 4.0 | 0.00 | 0.00 | 0.00 | 85 | 1009.6 |
| 20260505014122 | 58 | 215 | 3.0 | 5.0 | 0.00 | 0.00 | 0.00 | 83 | 1009.6 |
| 20260505013122 | 58 | 227 | 2.0 | 5.0 | 0.00 | 0.00 | 0.00 | 83 | 1009.5 |
| 20260505012121 | 58 | 243 | 2.0 | 5.0 | 0.00 | 0.00 | 0.00 | 83 | 1009.2 |
| 20260505011122 | 58 | 228 | 2.0 | 5.0 | 0.00 | 0.00 | 0.00 | 82 | 1009.1 |
| 20260505010121 | 58 | 246 | 3.0 | 6.0 | 0.00 | 0.00 | 0.00 | 83 | 1009.0 |
| 20260505005123 | 58 | 248 | 3.0 | 7.0 | 0.00 | 0.00 | 0.00 | 84 | 1009.0 |
| 20260505004121 | 58 | 239 | 3.0 | 7.0 | 0.00 | 0.00 | 0.00 | 83 | 1008.9 |
| 20260505003121 | 58 | 229 | 4.0 | 8.0 | 0.00 | 0.00 | 0.00 | 83 | 1008.6 |
| 20260505002121 | 59 | 244 | 4.0 | 9.0 | 0.00 | 0.00 | 0.00 | 81 | 1008.5 |
| 20260505001121 | 59 | 256 | 3.0 | 6.0 | 0.00 | 0.00 | 0.00 | 79 | 1008.4 |
| 20260505000122 | 59 | 255 | 3.0 | 7.0 | 0.00 | 0.00 | 0.00 | 79 | 1008.4 |
| 20260504235125 | 59 | 261 | 3.0 | 7.0 | 0.00 | 0.00 | 0.00 | 80 | 1008.2 |
| 20260504234142 | 59 | 196 | 3.0 | 6.0 | 0.00 | 0.00 | 0.00 | 79 | 1008.0 |
| 20260504233121 | 59 | 249 | 4.0 | 9.0 | 0.00 | 0.00 | 0.00 | 79 | 1008.0 |
| 20260504232121 | 60 | 209 | 4.0 | 7.0 | 0.00 | 0.00 | 0.00 | 77 | 1008.0 |
| 20260504231123 | 60 | 251 | 5.0 | 8.0 | 0.00 | 0.00 | 0.00 | 76 | 1007.9 |
| 20260504230124 | 60 | 238 | 3.0 | 6.0 | 0.00 | 0.00 | 0.00 | 76 | 1007.9 |
| 20260504225122 | 60 | 251 | 4.0 | 7.0 | 0.00 | 0.00 | 0.00 | 75 | 1008.0 |
| 20260504224121 | 61 | 228 | 4.0 | 8.0 | 0.00 | 0.00 | 0.00 | 73 | 1007.9 |
| 20260504223127 | 62 | 303 | 4.0 | 8.0 | 0.00 | 0.00 | 0.00 | 72 | 1007.9 |
| 20260504222148 | 63 | 241 | 4.0 | 7.0 | 0.00 | 0.00 | 0.00 | 70 | 1008.1 |
| 20260504221143 | 64 | 211 | 4.0 | 7.0 | 0.00 | 0.00 | 0.00 | 68 | 1008.2 |
| 20260504220123 | 64 | 262 | 4.0 | 9.0 | 0.00 | 0.00 | 0.00 | 67 | 1008.2 |
| 20260504215122 | 64 | 223 | 5.0 | 10.0 | 0.00 | 0.00 | 0.00 | 66 | 1008.2 |
| 20260504214147 | 64 | 251 | 5.0 | 11.0 | 0.00 | 0.00 | 0.00 | 65 | 1008.2 |
| 20260504213122 | 65 | 252 | 5.0 | 9.0 | 0.00 | 0.00 | 0.00 | 63 | 1008.4 |
| 20260504212120 | 67 | 247 | 5.0 | 9.0 | 0.00 | 0.00 | 0.00 | 60 | 1008.4 |
| 20260504211121 | 67 | 227 | 4.0 | 8.0 | 0.00 | 0.00 | 0.00 | 61 | 1008.2 |
| 20260504210123 | 67 | 186 | 6.0 | 12.0 | 0.00 | 0.00 | 0.00 | 59 | 1008.2 |
| 20260504205142 | 69 | 210 | 6.0 | 10.0 | 0.00 | 0.00 | 0.00 | 56 | 1008.2 |
| 20260504204143 | 70 | 242 | 4.0 | 8.0 | 0.00 | 0.00 | 0.00 | 56 | 1008.2 |
| 20260504203122 | 72 | 217 | 5.0 | 8.0 | 0.00 | 0.00 | 0.00 | 56 | 1008.2 |
| 20260504202121 | 71 | 222 | 4.0 | 7.0 | 0.00 | 0.00 | 0.00 | 55 | 1008.2 |
| 20260504201142 | 71 | 233 | 5.0 | 8.0 | 0.00 | 0.00 | 0.00 | 53 | 1008.4 |
| 20260504200142 | 72 | 220 | 4.0 | 6.0 | 0.00 | 0.00 | 0.00 | 54 | 1008.4 |
| 20260504195121 | 72 | 237 | 4.0 | 9.0 | 0.00 | 0.00 | 0.00 | 52 | 1008.4 |
| 20260504194121 | 71 | 229 | 6.0 | 9.0 | 0.00 | 0.00 | 0.00 | 53 | 1008.5 |
| 20260504193144 | 72 | 205 | 5.0 | 8.0 | 0.00 | 0.00 | 0.00 | 53 | 1008.6 |
| 20260504192122 | 72 | 227 | 4.0 | 9.0 | 0.00 | 0.00 | 0.00 | 51 | 1008.8 |
| 20260504191123 | 71 | 217 | 5.0 | 9.0 | 0.00 | 0.00 | 0.00 | 52 | 1008.8 |
| 20260504190123 | 72 | 247 | 5.0 | 9.0 | 0.00 | 0.00 | 0.00 | 49 | 1008.8 |
| 20260504185121 | 72 | 181 | 5.0 | 9.0 | 0.00 | 0.00 | 0.00 | 51 | 1008.9 |
| 20260504184122 | 73 | 253 | 5.0 | 8.0 | 0.00 | 0.00 | 0.00 | 51 | 1009.0 |
| 20260504183122 | 74 | 277 | 4.0 | 8.0 | 0.00 | 0.00 | 0.00 | 48 | 1009.1 |
| 20260504182122 | 73 | 225 | 6.0 | 9.0 | 0.00 | 0.00 | 0.00 | 46 | 1009.1 |
| 20260504181122 | 74 | 280 | 6.0 | 15.0 | 0.00 | 0.00 | 0.00 | 43 | 1009.2 |
| 20260504180122 | 74 | 240 | 6.0 | 10.0 | 0.00 | 0.00 | 0.00 | 42 | 1009.2 |
| 20260504175122 | 73 | 262 | 6.0 | 10.0 | 0.00 | 0.00 | 0.00 | 42 | 1009.2 |
| 20260504174123 | 73 | 229 | 5.0 | 10.0 | 0.00 | 0.00 | 0.00 | 42 | 1009.2 |
| 20260504173122 | 73 | 162 | 7.0 | 10.0 | 0.00 | 0.00 | 0.00 | 41 | 1009.4 |
| 20260504172145 | 72 | 209 | 6.0 | 10.0 | 0.00 | 0.00 | 0.00 | 43 | 1009.7 |
| 20260504171121 | 73 | 195 | 6.0 | 11.0 | 0.00 | 0.00 | 0.00 | 44 | 1009.9 |
| 20260504170142 | 71 | 260 | 5.0 | 12.0 | 0.00 | 0.00 | 0.00 | 44 | 1009.9 |
| 20260504160122 | 71 | 272 | 7.0 | 10.0 | 0.00 | 0.00 | 0.00 | 41 | 1010.6 |
| 20260504151124 | 69 | 244 | 5.0 | 10.0 | 0.00 | 0.00 | 0.00 | 44 | 1011.4 |
| 20260504150121 | 68 | 244 | 7.0 | 13.0 | 0.00 | 0.00 | 0.00 | 44 | 1011.4 |
| 20260504141123 | 67 | 274 | 5.0 | 9.0 | 0.00 | 0.00 | 0.00 | 49 | 1011.6 |
| 20260504140122 | 66 | 275 | 6.0 | 12.0 | 0.00 | 0.00 | 0.00 | 49 | 1011.6 |
| 20260504130122 | 62 | 255 | 7.0 | 11.0 | 0.00 | 0.00 | 0.00 | 55 | 1012.2 |
| 20260504120143 | 58 | 244 | 5.0 | 10.0 | 0.00 | 0.00 | 0.00 | 63 | 1012.5 |
| 20260504110142 | 53 | 230 | 3.0 | 7.0 | 0.00 | 0.00 | 0.00 | 68 | 1012.5 |